Palo Verde, AZ

3:51 PM MST on August 31, 2016 (GMT -0700)
Buckeye Municipal

Weather History for KBXK - April, 2013

Change the Weather History Date:

Monday, April 8, 2013

  Actual Average (KGYR) Record (KGYR)
Temperature  
Mean Temperature 68 °F -  
Max Temperature 78 °F 79 °F 95 °F (2007)
Min Temperature 57 °F 51 °F 44 °F (1998)
Cooling Degree Days 2    
Growing Degree Days 18 (Base 50)    
Moisture  
Dew Point 38 °F    
Average Humidity 36    
Maximum Humidity 59    
Minimum Humidity 16    
Precipitation  
Precipitation 0.00 in - - ()
Sea Level Pressure  
Sea Level Pressure 29.53 in    
Wind  
Wind Speed 10 mph (SSW)    
Max Wind Speed 31 mph    
Max Gust Speed 44 mph    
Visibility 7 miles    
Events      
Averages and records for this station are not official NWS values.
T = Trace of Precipitation, MM = Missing Value Source: NWS Daily Summary

Daily Weather History Graph

Daily Weather History Graph

Search for Another Location

Airport or City:

Trip Planner

Search our weather history database for the weather conditions in past years. The results will help you decide how hot, cold, wet, or windy it might be!

Date:

Astronomy

Apr. 08, 2013 Rise Set
Actual Time 6:08 AM MST 6:56 PM MST
Civil Twilight 5:43 AM MST 7:21 PM MST
Nautical Twilight 5:13 AM MST 7:51 PM MST
Astronomical Twilight 4:43 AM MST 8:22 PM MST
Moon 4:56 AM MST (4/8) 5:37 PM MST (4/8)
Length of Visible Light 13h 38m
Length of Day
12h 47m
Waning Crescent, 3% of the Moon is Illuminated
Apr 8
Waning Crescent
Apr 10
New
Apr 18
First Quarter
Apr 25
Full
May 2
Last Quarter

Hourly Weather History & Observations

Time (MST) Temp. Dew Point Humidity Pressure Visibility Wind Dir Wind Speed Gust Speed Precip Events Conditions
12:15 AM 68.0 °F 39.2 °F 35% 29.69 in 10.0 mi South 4.6 mph - N/A   Clear
12:35 AM 68.0 °F 39.2 °F 35% 29.68 in 10.0 mi SW 4.6 mph - N/A   Clear
12:55 AM 66.2 °F 39.2 °F 37% 29.67 in 10.0 mi SE 3.5 mph - N/A   Clear
1:15 AM 66.2 °F 39.2 °F 37% 29.67 in 10.0 mi Calm Calm - N/A   Clear
1:35 AM 66.2 °F 37.4 °F 35% 29.66 in 10.0 mi East 3.5 mph - N/A   Clear
1:55 AM 62.6 °F 39.2 °F 42% 29.66 in 10.0 mi Calm Calm - N/A   Clear
2:15 AM 60.8 °F 37.4 °F 42% 29.65 in 10.0 mi SW 3.5 mph - N/A   Clear
2:35 AM 64.4 °F 37.4 °F 37% 29.64 in 10.0 mi SSW 5.8 mph - N/A   Clear
2:55 AM 62.6 °F 37.4 °F 39% 29.64 in 10.0 mi Calm Calm - N/A   Clear
3:15 AM 60.8 °F 35.6 °F 39% 29.63 in 10.0 mi Calm Calm - N/A   Clear
3:35 AM 59.0 °F 35.6 °F 42% 29.63 in 10.0 mi Calm Calm - N/A   Clear
3:55 AM 60.8 °F 35.6 °F 39% 29.62 in 10.0 mi WSW 3.5 mph - N/A   Clear
4:15 AM 59.0 °F 33.8 °F 39% 29.62 in 10.0 mi West 4.6 mph - N/A   Clear
4:35 AM 60.8 °F 33.8 °F 36% 29.61 in 10.0 mi SW 4.6 mph - N/A   Clear
4:55 AM 59.0 °F 35.6 °F 42% 29.60 in 10.0 mi East 3.5 mph - N/A   Partly Cloudy
5:15 AM 60.8 °F 35.6 °F 39% 29.59 in 10.0 mi SE 4.6 mph - N/A   Mostly Cloudy
5:35 AM 59.0 °F 33.8 °F 39% 29.58 in 10.0 mi SSE 4.6 mph - N/A   Mostly Cloudy
5:55 AM 59.0 °F 35.6 °F 42% 29.57 in 10.0 mi ESE 5.8 mph - N/A   Scattered Clouds
6:15 AM 59.0 °F 35.6 °F 42% 29.56 in 10.0 mi SE 6.9 mph - N/A   Clear
6:35 AM 59.0 °F 37.4 °F 45% 29.57 in 10.0 mi SE 6.9 mph - N/A   Clear
6:55 AM 60.8 °F 39.2 °F 45% 29.57 in 5.0 mi SSE 5.8 mph - N/A   Clear
7:15 AM 64.4 °F 39.2 °F 40% 29.58 in 6.0 mi South 6.9 mph - N/A   Clear
7:35 AM 64.4 °F 41.0 °F 42% 29.58 in 6.0 mi SSW 10.4 mph - N/A   Clear
7:55 AM 66.2 °F 42.8 °F 43% 29.56 in 9.0 mi SSW 12.7 mph - N/A   Clear
8:15 AM 68.0 °F 42.8 °F 40% 29.56 in 5.0 mi SSW 16.1 mph 21.9 mph N/A   Clear
8:35 AM 69.8 °F 41.0 °F 35% 29.58 in 1.8 mi SW 17.3 mph 26.5 mph N/A   Scattered Clouds
8:55 AM 69.8 °F 42.8 °F 38% 29.55 in 1.2 mi South 20.7 mph 29.9 mph N/A   Scattered Clouds
9:15 AM 71.6 °F 42.8 °F 35% 29.56 in 1.2 mi SSW 25.3 mph 32.2 mph N/A   Scattered Clouds
9:35 AM 71.6 °F 44.6 °F 38% 29.55 in 3.0 mi SSW 21.9 mph 29.9 mph N/A   Partly Cloudy
9:55 AM 71.6 °F 44.6 °F 38% 29.54 in 1.5 mi South 21.9 mph 33.4 mph N/A   Clear
10:15 AM 73.4 °F 42.8 °F 33% 29.55 in 2.0 mi SSW 20.7 mph 34.5 mph N/A   Scattered Clouds
10:35 AM 73.4 °F 44.6 °F 36% 29.55 in 3.0 mi SSW 25.3 mph 31.1 mph N/A   Clear
10:55 AM 75.2 °F 44.6 °F 34% 29.54 in 3.0 mi SSW 24.2 mph 33.4 mph N/A   Clear
11:15 AM 75.2 °F 44.6 °F 34% 29.52 in 2.0 mi SSW 25.3 mph 34.5 mph N/A   Clear
11:35 AM 75.2 °F 41.0 °F 29% 29.51 in 1.2 mi SW 27.6 mph 38.0 mph N/A   Clear
11:55 AM 77.0 °F 41.0 °F 28% 29.50 in 1.2 mi SW 21.9 mph 39.1 mph N/A   Clear
12:15 PM 75.2 °F 41.0 °F 29% 29.50 in 4.0 mi SW 23.0 mph 33.4 mph N/A   Clear
12:35 PM 75.2 °F 41.0 °F 29% 29.48 in 5.0 mi SW 20.7 mph 39.1 mph N/A   Clear
12:55 PM 77.0 °F 39.2 °F 26% 29.47 in 3.0 mi SW 20.7 mph 38.0 mph N/A   Partly Cloudy
1:15 PM 75.2 °F 41.0 °F 29% 29.47 in 3.0 mi SW 28.8 mph 36.8 mph N/A   Partly Cloudy
1:35 PM 77.0 °F 41.0 °F 28% 29.46 in 6.0 mi SW 31.1 mph 40.3 mph N/A   Partly Cloudy
1:55 PM 77.0 °F 39.2 °F 26% 29.45 in 4.0 mi SSW 21.9 mph 38.0 mph N/A   Clear
2:15 PM 77.0 °F 41.0 °F 28% 29.44 in 2.0 mi South 24.2 mph 43.7 mph N/A   Scattered Clouds
2:35 PM 77.0 °F 42.8 °F 29% 29.43 in 3.0 mi SSW 28.8 mph 39.1 mph N/A   Clear
2:55 PM 75.2 °F 42.8 °F 31% 29.42 in 2.5 mi SSW 23.0 mph 31.1 mph N/A   Clear
3:15 PM 75.2 °F 41.0 °F 29% 29.41 in 7.0 mi SW 17.3 mph 32.2 mph N/A   Partly Cloudy
3:55 PM 75.2 °F 37.4 °F 25% 29.39 in 5.0 mi WSW 21.9 mph 32.2 mph N/A   Clear
4:15 PM 78.8 °F 28.4 °F 16% 29.39 in 4.0 mi West 23.0 mph 36.8 mph N/A   Clear
4:35 PM 77.0 °F 26.6 °F 16% 29.39 in 5.0 mi WSW 21.9 mph 33.4 mph N/A   Clear
4:55 PM 77.0 °F 26.6 °F 16% 29.39 in 5.0 mi WSW 23.0 mph 31.1 mph N/A   Clear
5:15 PM 75.2 °F 32.0 °F 21% 29.40 in 6.0 mi WNW 15.0 mph 29.9 mph N/A   Clear
5:35 PM 73.4 °F 30.2 °F 20% 29.40 in 5.0 mi West 17.3 mph 23.0 mph N/A   Clear
5:55 PM 73.4 °F 28.4 °F 19% 29.41 in 5.0 mi WNW 16.1 mph 21.9 mph N/A   Clear
6:15 PM 71.6 °F 26.6 °F 19% 29.41 in 5.0 mi WNW 19.6 mph 26.5 mph N/A   Scattered Clouds
6:35 PM 68.0 °F 32.0 °F 26% 29.43 in 3.0 mi NNW 24.2 mph 35.7 mph N/A   Scattered Clouds
6:55 PM 64.4 °F 32.0 °F 30% 29.45 in 6.0 mi NW 21.9 mph 34.5 mph N/A   Mostly Cloudy
7:15 PM 64.4 °F 32.0 °F 30% 29.48 in 10.0 mi NW 20.7 mph 27.6 mph N/A   Overcast
7:35 PM 60.8 °F 39.2 °F 45% 29.50 in 5.0 mi WNW 17.3 mph 29.9 mph N/A   Overcast
7:55 PM 62.6 °F 37.4 °F 39% 29.49 in 9.0 mi West 3.5 mph - N/A   Overcast
8:15 PM 60.8 °F 39.2 °F 45% 29.49 in 10.0 mi South 3.5 mph - N/A   Overcast
8:35 PM 59.0 °F 44.6 °F 59% 29.49 in 10.0 mi SE 6.9 mph - N/A   Overcast
8:55 PM 59.0 °F 42.8 °F 55% 29.50 in 10.0 mi ESE 9.2 mph - N/A   Overcast
9:15 PM 59.0 °F 42.8 °F 55% 29.52 in 10.0 mi East 9.2 mph - N/A   Overcast
9:35 PM 57.2 °F 41.0 °F 55% 29.52 in 10.0 mi East 10.4 mph - N/A   Overcast
9:55 PM 59.0 °F 41.0 °F 51% 29.52 in 10.0 mi ESE 5.8 mph - N/A   Overcast
10:15 PM 59.0 °F 39.2 °F 48% 29.52 in 10.0 mi Calm Calm - N/A   Overcast
10:35 PM 59.0 °F 39.2 °F 48% 29.53 in 10.0 mi Calm Calm - N/A   Overcast
10:55 PM 59.0 °F 37.4 °F 45% 29.53 in 10.0 mi SW 5.8 mph - N/A   Overcast
11:15 PM 59.0 °F 39.2 °F 48% 29.54 in 10.0 mi SW 6.9 mph - N/A   Overcast
11:35 PM 59.0 °F 32.0 °F 36% 29.54 in 10.0 mi West 10.4 mph 17.3 mph N/A   Overcast
11:55 PM 59.0 °F 32.0 °F 36% 29.55 in 10.0 mi West 10.4 mph - N/A   Overcast